Flag for USA

Past Weather in 36°05'40"N, 79°59'27"W, USA — Yesterday and Last 2 Weeks

Now
71 °F

Clear.


Feels Like: 64 °F
Forecast: 89 / 71 °F
Wind: No wind

Location: Smith Reynolds Airport

Current Time: Aug 9, 2020 at 5:57:15 am

Latest Report: Aug 9, 2020 at 4:54 am


Visibility: 8 mi

Pressure: 30.13 "Hg

Humidity: 100%

Dew Point: 71 °F

Location of 36°05'40"N, 79°59'27"WLocation

Past Weather in 36°05'40"N, 79°59'27"W — Graph

°F

36°05'40"N, 79°59'27"W Temperature Yesterday

Maximum temperature yesterday: 87 °F (at 3:54 pm)
Minimum temperature yesterday: 71 °F (at 6:38 am)
Average temperature yesterday: 78 °F

High & Low Weather Summary for the Past Weeks

 TemperatureHumidityPressure
High92 °F (Jul 27, 3:54 pm)100% (Jul 25, 3:54 am)30.18 "Hg (Jul 25, 3:54 am)
Low66 °F (Aug 7, 5:54 am)47% (Jul 27, 3:54 pm)29.79 "Hg (Jul 31, 5:54 pm)
Average78 °F83%30.01 "Hg
* Reported Jul 25 3:54 am — Aug 9 3:54 am, 36°05'40"N, 79°59'27"W. Weather by CustomWeather, © 2020

Note: Actual official high and low records may vary slightly from our data, if they occured in-between our weather recording intervals... More about our weather records

36°05'40"N, 79°59'27"W Weather History for the Previous 24 Hours

Scroll right to see more
 ConditionsComfort  
Time TempWeatherWind HumidityBarometerVisibility
3:54 am
Sun, Aug 9
71 °FClear.6 mph100%30.12 "Hg10 mi
2:54 am71 °FClear.No wind96%30.13 "Hg10 mi
1:54 am73 °FClear.No wind94%30.14 "Hg10 mi
12:54 am73 °FClear.No wind94%30.14 "Hg10 mi
11:54 pm
Sat, Aug 8
73 °FClear.No wind94%30.14 "Hg10 mi
10:54 pm74 °FPassing clouds.No wind91%30.13 "Hg10 mi
9:54 pm75 °FClear.No wind88%30.14 "Hg10 mi
8:54 pm76 °FClear.No wind88%30.12 "Hg10 mi
7:54 pm79 °FSunny.3 mph77%30.10 "Hg10 mi
7:17 pm81 °FThundershowers. Sunny.3 mph69%30.13 "Hg10 mi
6:54 pm81 °FPartly sunny.5 mph69%30.08 "Hg10 mi
5:54 pm83 °FMostly cloudy.16 mph72%30.08 "Hg10 mi
5:30 pm86 °FThundershowers. Broken clouds.6 mph67%30.12 "Hg10 mi
5:20 pm86 °FBroken clouds.6 mph67%30.12 "Hg10 mi
4:54 pm85 °FPartly sunny.6 mph70%30.08 "Hg10 mi
3:54 pm87 °FScattered clouds.8 mph65%30.09 "Hg10 mi
2:54 pm85 °FPartly sunny.7 mph72%30.11 "Hg10 mi
2:02 pm83 °FBroken clouds.6 mph72%30.16 "Hg10 mi
1:54 pm84 °FMostly cloudy.6 mph72%30.13 "Hg10 mi
1:27 pm84 °FPartly sunny.5 mph72%30.17 "Hg10 mi
12:54 pm83 °FBroken clouds.No wind72%30.14 "Hg10 mi
12:23 pm84 °FBroken clouds.No wind74%30.18 "Hg10 mi
11:54 am81 °FBroken clouds.5 mph77%30.15 "Hg10 mi
10:54 am79 °FBroken clouds.No wind82%30.15 "Hg10 mi
10:13 am78 °FOvercast.3 mph84%30.18 "Hg10 mi
9:54 am79 °FPartly sunny.No wind82%30.15 "Hg10 mi
8:54 am75 °FPassing clouds.No wind94%30.15 "Hg7 mi
7:54 am73 °FFog.No wind100%30.15 "Hg2 mi
6:54 am71 °FFog.3 mph100%30.13 "Hg2 mi
6:38 am71 °FFog.3 mph100%30.16 "Hg3 mi
5:54 am72 °FFog.5 mph100%30.10 "Hg1 mi
5:28 am72 °FFog.3 mph100%30.13 "Hg2 mi
5:04 am73 °FFog.3 mph100%30.12 "Hg6 mi
Weather by CustomWeather, © 2020

See weather overview